User: anonymous   Login
Location: Unspecified
(0.0000°N, 0.0000°E)
Time: 17:27:19
(UTC+00:00)
Language:

Gonets-D1 - Orbit

View from above orbital plane
View from above orbital plane
View from above satellite
View from above satellite

Ground track
Ground track

The orbit data is extracted from the following two-line orbital elements,

1 23788U 96009B   18049.71685324 +.00000014 +00000-0 +16406-4 0  9996
2 23788 082.5692 089.7599 0007586 119.6608 240.5232 12.63140762014449
Epoch (UTC): 18 February 2018 17:12:16
Eccentricity: 0.0007586
inclination: 82.5692°
perigee height: 1404 km
apogee height: 1416 km
right ascension of ascending node: 89.7599°
argument of perigee: 119.6608°
revolutions per day: 12.63140762
mean anomaly at epoch: 240.5232°
orbit number at epoch: 1444

The dashed part of the orbit path shows where the satellite is in the earth's shadow,  

DLR